Location: Hillsboro
(38.3483°N, 97.1938°W)
Time: 11:01:44
(UTC-05:00)

Daily predictions for brighter satellites

Satellite Brightness Start Highest point End
(mag) Time Altitude Azimuth Time Altitude Azimuth Time Altitude Azimuth
Cosmos 2227 Rocket 2.4 20:21:22 10° NNW 20:27:03 77° WSW 20:32:40 10° SSE
Cosmos 2298 Rocket 4.4 20:23:53 10° N 20:29:00 46° ENE 20:34:06 10° SE
Cosmos 2322 Rocket 3.9 20:28:22 10° ESE 20:29:25 11° E 20:30:28 10° E
Cosmos 1934 Rocket 4.2 20:24:20 10° S 20:30:29 81° W 20:36:47 10° N
CZ-2D R/B 4.0 20:31:50 10° SE 20:35:23 35° ENE 20:38:58 10° N
EO 1 Delta rocket 4.3 20:32:17 10° NNE 20:37:07 51° E 20:42:55 10° S
Resurs 01 Rocket 2.0 20:35:46 10° S 20:40:11 71° WSW 20:44:38 10° NNW
Cosmos 1975 2.8 20:36:21 10° S 20:40:25 67° E 20:44:30 10° NNE
Cosmos 2297 Rocket 2.3 20:35:52 10° NNW 20:41:33 82° WSW 20:47:12 10° SSE
Lacrosse 5 rocket 2.8 20:39:02 10° WNW 20:42:18 29° SW 20:45:28 10° S
Cosmos 1763 Rocket 4.2 20:39:28 10° SSE 20:43:51 30° E 20:48:14 10° NE
Cosmos 2082 4.4 20:39:52 10° NNW 20:45:22 57° WSW 20:50:51 10° S
Cosmos 1153 Rocket 4.5 20:41:06 10° S 20:47:12 65° E 20:53:17 10° NNE
FengYun 1-2 T 4.3 20:43:36 10° SSE 20:49:14 88° WSW 20:54:52 10° NNW
Cosmos 1515 3.8 20:47:17 10° N 20:51:05 56° E 20:54:50 10° SSE
Cosmos 2150 Rocket 4.0 20:48:26 10° NNW 20:53:35 67° ENE 20:58:44 10° SSE
Cosmos 2084 3.8 20:52:46 10° NW 20:56:50 63° WSW 21:01:07 10° SSE
BREEZE-M DEB (TANK) 3.7 20:55:53 10° NNW 20:57:29 16° NNE 20:59:21 12° ENE
Cosmos 1825 Rocket 4.4 20:55:14 10° NNE 20:59:07 30° ENE 21:01:32 18° SE
Cosmos 1898 Rocket 3.5 20:55:29 10° NNW 21:00:48 84° ENE 21:06:02 10° SSE
Cosmos 1802 Rocket 4.3 21:00:09 10° SSE 21:06:10 45° E 21:12:15 10° NNE
Cosmos 468 Rocket 4.2 21:01:22 10° SSW 21:06:28 74° WNW 21:11:37 10° NNE
Cosmos 2016 Rocket 4.4 21:02:38 10° SSE 21:08:13 38° E 21:13:52 10° NNE
Cosmos 841 Rocket 3.7 21:04:58 10° S 21:09:58 47° ESE 21:14:58 10° NNE
Cosmos 1743 2.9 21:07:30 10° S 21:11:17 51° E 21:15:06 10° NNE
Cosmos 1953 Rocket 4.5 21:08:09 10° NNE 21:12:08 31° ENE 21:13:39 25° ESE
Cosmos 1697 Rocket 3.2 21:06:34 10° SSW 21:12:10 64° WNW 21:17:47 10° NNE
H-2A R/B 3.6 21:12:09 16° ENE 21:12:31 17° ENE 21:15:09 10° NNE
CZ-4B DEB 4.2 21:11:45 10° S 21:14:50 39° W 21:17:57 10° NNW
Cosmos 1626 Rocket 4.4 21:11:46 10° NNW 21:16:01 51° W 21:20:13 10° SSW
Cosmos 2173 Rocket 4.0 21:13:23 10° S 21:19:41 68° E 21:25:57 10° NNE
Cosmos 2098 Rocket 4.5 21:13:48 10° SSE 21:19:48 36° E 21:24:50 10° NNE
Cosmos 1814 Rocket 4.5 21:16:19 10° SSW 21:21:36 65° WNW 21:26:53 10° NNE
Cosmos 1939 Rocket 3.6 21:22:25 31° ESE 21:23:25 35° ENE 21:27:14 10° N
Cosmos 1066 Rocket 4.3 21:18:19 10° N 21:24:04 85° W 21:29:54 10° S
USA 186 2.3 21:24:27 17° S 21:26:33 49° W 21:29:15 10° NNW
SJ-11-01 4.4 21:24:29 26° SE 21:26:54 56° ENE 21:31:29 10° N
Lacrosse 5 2.3 21:22:05 10° NW 21:27:03 58° SW 21:30:12 22° SSE
SL-16 R/B 2.7 21:23:05 10° S 21:28:11 36° ESE 21:33:18 10° NE
Cosmos 967 Rocket 4.4 21:21:53 10° NNW 21:28:14 71° ENE 21:31:51 27° SE
BREEZE-M TANK 3.3 21:18:35 10° WNW 21:29:31 68° NNE 21:31:15 32° E
Cosmos 1758 Rocket 4.0 21:26:10 10° N 21:30:15 40° ENE 21:30:56 37° ESE
Iridium 4 Rocket 4.1 21:30:45 10° NNW 21:35:23 50° W 21:39:39 10° SSW
SPOT 5 3.8 21:36:37 29° E 21:37:02 30° ENE 21:41:07 10° N
Cosmos 1980 Rocket 2.6 21:31:29 10° SSW 21:37:06 66° WNW 21:42:48 10° NNE
YAOGAN 11 4.0 21:35:47 33° SSE 21:37:45 74° ENE 21:42:11 10° N
Cosmos 2100 Rocket 4.1 21:33:44 10° S 21:40:00 77° W 21:46:14 10° N
ALOS 3.8 21:37:19 10° SSW 21:41:32 34° W 21:45:48 10° NNW
H-2A R/B 4.4 21:38:06 10° SSW 21:41:40 34° W 21:45:17 10° NNW
CZ-4 DEB 2.8 21:47:38 74° WNW 21:47:38 74° WNW 21:50:39 10° NNW
Cosmos 1666 2.7 21:48:55 60° NE 21:48:55 60° NE 21:52:17 10° NNE
deb Chang Zheng 4 4.0 21:44:15 10° NNE 21:47:56 43° ENE 21:47:56 43° ENE
RESURS DK-1 3.9 21:47:30 10° NW 21:51:11 32° WSW 21:53:33 18° SSW
Tiangong 1 2.6 21:50:53 10° W 21:53:02 30° WSW 21:53:02 30° WSW
Envisat 2.9 21:52:52 46° SSE 21:54:21 75° ENE 21:59:27 10° N
Cosmos 1842 3.5 21:50:49 10° N 21:54:08 54° NE 21:54:08 54° NE
OAO 2 Rocket 3.9 21:51:43 10° W 21:56:24 40° SSW 21:56:54 39° S
Tsikada Rocket 4.1 21:50:30 10° N 21:56:48 55° E 21:58:24 44° SE
Cosmos 1606 Rocket 4.0 21:53:55 12° SSW 21:58:00 61° W 22:02:25 10° N
Cosmos 2058 Rocket 3.0 21:59:23 55° S 22:00:22 87° E 22:04:55 10° N
Cosmos 2263 Rocket 3.1 21:56:58 10° N 22:01:55 32° ENE 22:02:03 32° ENE
Cosmos 1340 3.7 22:01:44 10° NNW 22:05:21 43° W 22:06:07 38° SW
Cosmos 1725 Rocket 3.8 22:07:38 32° S 22:10:45 83° E 22:17:01 10° N
ERS-1 Rocket 3.4 22:09:01 34° SSW 22:10:59 58° W 22:15:56 10° NNW
Cosmos 2322 Rocket 2.1 22:06:58 10° SSW 22:12:34 87° WNW 22:18:14 10° NNE
MetOp-A 4.1 22:12:35 62° E 22:12:46 63° ENE 22:18:04 10° N
BREEZE-M DEB (TANK) 4.2 22:01:20 10° WSW 22:14:55 60° NNW 22:17:26 28° NE
Cosmos 2233 Rocket 3.8 22:30:38 73° E 22:30:38 73° E 22:36:52 10° N
H-2A R/B 3.7 22:35:08 21° NNE 22:35:08 21° NNE 22:37:19 10° N
Meteor 2-5 Rocket 4.3 22:35:09 10° N 22:39:49 49° NE 22:39:49 49° NE
ASTEX 1 4.2 22:39:27 10° N 22:44:15 47° W 22:44:47 45° W
Cosmos 2228 4.4 22:45:13 36° NW 22:45:13 36° NW 22:48:26 10° N
H-2A R/B 3.7 22:49:18 31° WNW 22:49:18 31° WNW 22:52:05 10° NNW
Cosmos 1125 Rocket 4.2 22:44:03 10° NNW 22:48:48 47° W 22:48:48 47° W
Cosmos 540 Rocket 4.2 22:51:51 49° WNW 22:52:01 49° WNW 22:57:00 10° N
SPOT 1/Viking Rocket 4.2 22:53:57 53° NNW 22:53:57 53° NNW 22:57:53 10° NNW
ARGOS 3.8 23:01:56 52° NNW 23:01:56 52° NNW 23:06:00 10° NNW
SL-16 R/B 3.9 23:07:20 10° WSW 23:12:17 30° WNW 23:17:16 10° N
Cosmos 2360 Rocket 3.7 23:24:17 30° N 23:24:17 30° N 23:27:05 10° NNE
Terra 4.0 23:25:58 22° N 23:25:58 22° N 23:27:36 10° N
Cosmos 2263 Rocket 4.0 23:40:51 10° NW 23:43:45 25° WNW 23:43:45 25° WNW
